Weather History for Frankfort, KY

Change the Weather History Date:

Saturday, September 14, 2013

  Actual Average Record
Temperature  
Mean Temperature 61 °F 68 °F  
Max Temperature 74 °F 80 °F 103 °F (1939)
Min Temperature 47 °F 57 °F 36 °F (1902)
Degree Days  
Heating Degree Days 4 1  
Month to date heating degree days 9 5  
Since 1 July heating degree days 13 6  
Cooling Degree Days 0 4  
Month to date cooling degree days 118 87  
Year to date cooling degree days 1054 1089  
Growing Degree Days 10 (Base 50)    
Moisture  
Dew Point 45 °F    
Average Humidity 62    
Maximum Humidity 93    
Minimum Humidity 31    
Precipitation  
Precipitation 0.00 in 0.11 in 4.13 in (1979)
Month to date precipitation 0.09 1.64  
Year to date precipitation 35.15 32.95  
Sea Level Pressure  
Sea Level Pressure 30.11 in    
Wind  
Wind Speed 4 mph (NE)    
Max Wind Speed 13 mph    
Max Gust Speed 16 mph    
Visibility 10 miles    
Events      
T = Trace of Precipitation, MM = Missing Value Source: NWS Daily Summary

Daily Weather History Graph

Daily Weather History Graph

Search for Another Location

Airport:

Trip Planner

Search our weather history database for the weather conditions in past years. The results will help you decide how hot, cold, wet, or windy it might be!

Date:

Astronomy

Sep. 14, 2013 Rise Set
Actual Time 7:20 AM EDT 7:48 PM EDT
Civil Twilight 6:54 AM EDT 8:15 PM EDT
Nautical Twilight 6:22 AM EDT 8:46 PM EDT
Astronomical Twilight 5:51 AM EDT 9:18 PM EDT
Moon 4:26 PM EDT (9/14) 1:55 AM EDT (9/14)
Length of Visible Light 13h 21m
Length of Day
12h 28m
Waxing Gibbous, 72% of the Moon is Illuminated
Sep 14
Waxing Gibbous
Sep 19
Full
Sep 26
Last Quarter
Oct 4
New
Oct 11
First Quarter

Hourly Weather History & Observations

Time (EDT) Temp. Dew Point Humidity Pressure Visibility Wind Dir Wind Speed Gust Speed Precip Events Conditions
12:53 AM 48.9 °F 46.0 °F 90% 30.07 in 10.0 mi North 3.5 mph - N/A   Clear
1:53 AM 50.0 °F 46.0 °F 86% 30.08 in 10.0 mi North 3.5 mph - N/A   Clear
2:53 AM 52.0 °F 45.0 °F 77% 30.09 in 10.0 mi NNE 4.6 mph - N/A   Clear
3:53 AM 50.0 °F 45.0 °F 83% 30.09 in 10.0 mi North 4.6 mph - N/A   Clear
4:53 AM 50.0 °F 45.0 °F 83% 30.09 in 10.0 mi NNE 3.5 mph - N/A   Clear
5:53 AM 48.9 °F 45.0 °F 86% 30.10 in 10.0 mi NNE 3.5 mph - N/A   Clear
6:53 AM 46.9 °F 45.0 °F 93% 30.11 in 10.0 mi Calm Calm - N/A   Clear
7:53 AM 48.0 °F 45.0 °F 89% 30.13 in 10.0 mi Calm Calm - N/A   Clear
8:53 AM 53.1 °F 46.9 °F 80% 30.15 in 10.0 mi ENE 5.8 mph - N/A   Clear
9:53 AM 57.0 °F 48.0 °F 72% 30.15 in 10.0 mi ENE 6.9 mph - N/A   Clear
10:53 AM 62.1 °F 46.9 °F 58% 30.16 in 10.0 mi NE 9.2 mph - N/A   Clear
11:53 AM 64.9 °F 45.0 °F 48% 30.16 in 10.0 mi ENE 6.9 mph - N/A   Clear
12:53 PM 66.9 °F 44.1 °F 44% 30.16 in 10.0 mi Variable 4.6 mph - N/A   Clear
1:53 PM 69.1 °F 44.1 °F 40% 30.14 in 10.0 mi Variable 4.6 mph - N/A   Clear
2:53 PM 71.1 °F 43.0 °F 36% 30.11 in 10.0 mi Variable 3.5 mph - N/A   Clear
3:53 PM 72.0 °F 41.0 °F 33% 30.11 in 10.0 mi NE 6.9 mph - N/A   Clear
4:53 PM 73.9 °F 41.0 °F 30% 30.08 in 10.0 mi Variable 3.5 mph - N/A   Clear
5:53 PM 72.0 °F 41.0 °F 33% 30.09 in 10.0 mi Variable 4.6 mph - N/A   Clear
6:53 PM 68.0 °F 41.0 °F 37% 30.09 in 10.0 mi East 6.9 mph - N/A   Clear
7:53 PM 64.0 °F 43.0 °F 46% 30.10 in 10.0 mi ESE 3.5 mph - N/A   Clear
8:53 PM 57.0 °F 46.0 °F 67% 30.12 in 10.0 mi Calm Calm - N/A   Clear
9:53 PM 54.0 °F 46.0 °F 75% 30.12 in 10.0 mi Calm Calm - N/A   Clear
10:53 PM 53.1 °F 46.9 °F 80% 30.11 in 10.0 mi Calm Calm - N/A   Clear
11:53 PM 50.0 °F 46.0 °F 86% 30.11 in 10.0 mi Calm Calm - N/A   Clear